Regional Weather Roundup
Issued by NWS Northern Indiana

Home | Current Version | Previous Version | Text Only | Print | Product List | Glossary On
Versions: 1 2 3 4 5 6 7 8 9 10 11 12 13 14 15 16 17 18 19 20 21 22 23 24 25 26 27 28 29 30 31 32 33 34 35 36 37 38 39 40 41 42 43 44 45 46 47 48 49 50
000
ASUS43 KIWX 032310
RWRIWX

KIWX WEATHER ROUNDUP
NATIONAL WEATHER SERVICE NORTHERN INDIANA
700 PM EDT FRI JUL 03 2015

NOTE: "FAIR" INDICATES FEW OR NO CLOUDS BELOW 12,000 FEET WITH NO
SIGNIFICANT WEATHER AND/OR OBSTRUCTIONS TO VISIBILITY.

* THESE STATIONS ARE NOT UNDER NWS QUALITY CONTROL. THEY ALSO MAY NOT
  REPORT WEATHER SUCH AS PRECIPITATION OR FOG.

INZ001>027-040000-
NORTHERN INDIANA

CITY           SKY/WX    TMP DP  RH WIND       PRES   REMARKS
GARY*          MOSUNNY   70  57  64 NE7       29.93F
VALPARAISO     SUNNY     72  57  59 N7        29.93S
MICHIGAN CITY* SUNNY     68  54  60 N8        29.94S
LAPORTE*       SUNNY     73  58  61 N8        29.93S
KNOX*            N/A     73  52  46 NE3       29.90F
SOUTH BEND     SUNNY     76  54  46 NW5       29.92F
ELKHART*       MOSUNNY   75  50  41 CALM      29.92F
GOSHEN         MOSUNNY   74  55  51 NE3       29.91F
MONTICELLO*    PTSUNNY   74  62  65 CALM      29.90F
LOGANSPORT*    PTSUNNY   73  55  53 N6        29.91F
ROCHESTER*     PTSUNNY   79  59  50 E5        29.91F
WARSAW*          N/A     73  57  56 CALM      29.92S
ANGOLA*          N/A     75  54  46 N5        29.92S
FORT WAYNE     PTSUNNY   75  59  57 NE7       29.91F
HUNTINGTON*    MOSUNNY   74  59  61 NE6       29.90F
PERU/GRISSOM   CLOUDY    73  63  68 NE6       29.89F
MARION*        PTSUNNY   73  60  63 NE6       29.91S

$$
INZ028>050-040000-
CENTRAL INDIANA

CITY           SKY/WX    TMP DP  RH WIND       PRES   REMARKS
LAFAYETTE      PTSUNNY   73  62  68 NE8       29.89F
KOKOMO*        PTSUNNY   73  63  68 E3        29.90F
MUNCIE*        PTSUNNY   75  61  61 NE7       29.89S
INDIANAPOLIS   CLOUDY    73  62  68 NE9       29.87S

$$
MIZ043>046-050>051-056>058-064>065-071>073-077>080-040000-
SOUTHWEST LOWER MICHIGAN

CITY           SKY/WX    TMP DP  RH WIND       PRES   REMARKS
BATTLE CREEK   SUNNY     76  53  44 NW3       29.92F
BENTON HARBOR  SUNNY     68  55  63 N8        29.93S
COLDWATER*     SUNNY     73  53  51 NE3       29.92S
HILLSDALE*     SUNNY     72  53  50 NE3       29.93S
HOLLAND        SUNNY     71  53  52 NW7       29.93F
GRAND RAPIDS   PTSUNNY   75  47  36 NE3       29.92F
KALAMAZOO      SUNNY     75  52  44 CALM      29.92F
STURGIS*       SUNNY     72  55  56 NE3       29.92S
THREE RIVERS*  FAIR      73  53  48 CALM      29.92S

$$
OHZ001>008-015>018-024>025-040000-
NORTHWEST OHIO

CITY           SKY/WX    TMP DP  RH WIND       PRES   REMARKS
DEFIANCE       MOSUNNY   75  57  53 NE6       29.90F
FINDLAY        MOSUNNY   72  57  59 N10       29.90S
TOLEDO EXPRESS MOSUNNY   72  51  47 NE8       29.91F
TOLEDO METCALF MOSUNNY   70  51  51 NE6       29.93S
LIMA           PTSUNNY   72  59  63 N9        29.90S

$$
AND FOR LAKE MICHIGAN COASTAL AND OPEN LAKE BUOY OBSERVATIONS

STATION/POSITION TEMP    WIND        PRES    VSBY  WAVE
                 AIR SEA DIR/SP/G                  HT/PER
                 (F)     (DEG/KT/KT) (MB)    (MI)  (FT/S)
CALUMET HARBOR    68      20/  6/  8   N/A
MICHIGAN CITY     63     360/  6/  6   N/A
BURNS HARBOR      65      40/  8/  9 1014.2F
SAINT JOSEPH      66     360/  5/  7   N/A
4 MI NW BRIDGMAN  64 63                N/A           1/ 2
MICHIGAN CITY     65 65   40/  6/  8   N/A           1/ 2

$$
&&


USA.gov is the U.S. government's official web portal to all federal, state and local government web resources and services.